QPF
0.04 0.04 0.03 0.04 0.03 0.04 0.05 0.05 0.04 0.04 0.04 0.02 0.01 0.01 0.01 0.00 0.00 0.02 0.04 0.03 0.02 0.01 0.02 0.03 0.05 0.05 0.05 0.05 0.06 0.06 0.06 0.05 0.05 0.05 0.04 0.03 0.03 0.03 0.03 0.02 0.02 0.02 0.01
0.04 0.04 0.04 0.05 0.03 0.03 0.05 0.04 0.04 0.05 0.03 0.03 0.02 0.01 0.01 0.01 0.02 0.03 0.06 0.08 0.05 0.02 0.02 0.03 0.05 0.05 0.06 0.06 0.06 0.06 0.06 0.06 0.06 0.06 0.04 0.04 0.03 0.03 0.03 0.03 0.03 0.02 0.02
0.05 0.05 0.06 0.07 0.05 0.05 0.05 0.03 0.03 0.04 0.04 0.03 0.02 0.02 0.02 0.03 0.04 0.04 0.06 0.10 0.09 0.04 0.03 0.04 0.05 0.06 0.07 0.07 0.07 0.06 0.06 0.07 0.07 0.06 0.05 0.04 0.03 0.03 0.02 0.02 0.02 0.02 0.02
0.05 0.08 0.09 0.09 0.09 0.08 0.07 0.07 0.06 0.07 0.08 0.07 0.05 0.05 0.04 0.04 0.04 0.04 0.03 0.05 0.07 0.08 0.08 0.07 0.06 0.06 0.07 0.08 0.08 0.08 0.08 0.07 0.07 0.06 0.05 0.04 0.03 0.02 0.02 0.02 0.01 0.01 0.01
0.09 0.11 0.12 0.12 0.11 0.09 0.09 0.07 0.11 0.11 0.12 0.11 0.08 0.09 0.06 0.06 0.06 0.05 0.05 0.06 0.08 0.11 0.13 0.11 0.08 0.07 0.07 0.07 0.08 0.09 0.09 0.09 0.08 0.07 0.06 0.06 0.05 0.04 0.03 0.02 0.01 0.01 0.01
0.09 0.12 0.13 0.11 0.10 0.10 0.10 0.10 0.12 0.13 0.14 0.14 0.10 0.09 0.07 0.06 0.07 0.10 0.09 0.06 0.05 0.06 0.09 0.10 0.10 0.11 0.10 0.08 0.07 0.07 0.08 0.09 0.09 0.08 0.08 0.07 0.06 0.04 0.03 0.03 0.02 0.02 0.01
0.10 0.12 0.13 0.14 0.14 0.13 0.11 0.11 0.12 0.12 0.13 0.15 0.15 0.13 0.10 0.09 0.09 0.10 0.08 0.07 0.05 0.05 0.06 0.09 0.11 0.11 0.10 0.08 0.06 0.05 0.06 0.07 0.09 0.09 0.09 0.08 0.06 0.05 0.05 0.05 0.04 0.04 0.03
0.14 0.15 0.17 0.17 0.15 0.15 0.12 0.13 0.13 0.14 0.14 0.15 0.14 0.13 0.13 0.11 0.08 0.07 0.07 0.06 0.07 0.06 0.06 0.06 0.07 0.07 0.07 0.07 0.06 0.04 0.04 0.04 0.05 0.06 0.06 0.07 0.08 0.08 0.08 0.07 0.07 0.07 0.07
0.14 0.14 0.13 0.13 0.12 0.12 0.12 0.13 0.13 0.14 0.13 0.13 0.13 0.13 0.13 0.14 0.12 0.09 0.08 0.07 0.07 0.06 0.05 0.04 0.04 0.05 0.05 0.06 0.07 0.06 0.06 0.05 0.05 0.06 0.07 0.07 0.07 0.08 0.07 0.08 0.09 0.09 0.10
0.12 0.13 0.13 0.13 0.12 0.13 0.14 0.13 0.12 0.12 0.12 0.12 0.11 0.10 0.11 0.11 0.12 0.11 0.10 0.09 0.08 0.06 0.05 0.04 0.04 0.05 0.06 0.07 0.09 0.10 0.09 0.08 0.07 0.06 0.07 0.08 0.08 0.08 0.07 0.07 0.08 0.09 0.09
0.13 0.13 0.12 0.13 0.15 0.15 0.15 0.16 0.15 0.13 0.12 0.13 0.12 0.12 0.12 0.12 0.11 0.12 0.11 0.08 0.06 0.05 0.04 0.05 0.05 0.05 0.05 0.06 0.05 0.06 0.06 0.06 0.05 0.05 0.04 0.05 0.07 0.09 0.11 0.11 0.10 0.09 0.10
0.17 0.17 0.18 0.19 0.18 0.16 0.14 0.12 0.10 0.10 0.11 0.12 0.12 0.13 0.13 0.12 0.11 0.11 0.10 0.07 0.06 0.05 0.04 0.05 0.05 0.05 0.05 0.05 0.05 0.05 0.04 0.04 0.04 0.04 0.05 0.05 0.05 0.08 0.10 0.11 0.11 0.10 0.11
0.16 0.16 0.15 0.13 0.13 0.13 0.10 0.08 0.06 0.05 0.06 0.07 0.08 0.09 0.08 0.08 0.08 0.08 0.08 0.07 0.06 0.04 0.04 0.03 0.03 0.03 0.03 0.03 0.04 0.04 0.04 0.04 0.04 0.04 0.04 0.04 0.04 0.05 0.07 0.07 0.07 0.07 0.08
0.14 0.12 0.10 0.08 0.07 0.07 0.06 0.06 0.05 0.05 0.06 0.07 0.07 0.08 0.08 0.07 0.06 0.06 0.06 0.06 0.05 0.04 0.03 0.03 0.03 0.03 0.03 0.03 0.04 0.03 0.02 0.03 0.02 0.02 0.02 0.02 0.02 0.02 0.03 0.04 0.04 0.05 0.05
0.11 0.10 0.09 0.08 0.07 0.06 0.06 0.06 0.07 0.07 0.08 0.08 0.08 0.08 0.08 0.07 0.05 0.04 0.03 0.03 0.03 0.04 0.04 0.04 0.03 0.02 0.02 0.02 0.02 0.02 0.01 0.02 0.02 0.02 0.02 0.02 0.02 0.02 0.03 0.03 0.03 0.03 0.03
0.10 0.09 0.08 0.07 0.07 0.07 0.08 0.08 0.09 0.09 0.09 0.08 0.07 0.06 0.05 0.04 0.04 0.03 0.03 0.03 0.03 0.03 0.03 0.03 0.03 0.02 0.02 0.01 0.01 0.01 0.01 0.01 0.01 0.01 0.01 0.01 0.01 0.02 0.02 0.04 0.05 0.05 0.05
0.05 0.06 0.07 0.07 0.07 0.08 0.08 0.08 0.08 0.07 0.06 0.05 0.04 0.03 0.02 0.02 0.02 0.01 0.01 0.02 0.02 0.02 0.03 0.02 0.02 0.02 0.02 0.02 0.02 0.02 0.01 0.01 0.01 0.01 0.01 0.01 0.01 0.01 0.01 0.01 0.02 0.03 0.03
0.04 0.05 0.05 0.05 0.05 0.05 0.05 0.05 0.05 0.04 0.04 0.03 0.02 0.02 0.01 0.01 0.01 0.01 0.01 0.01 0.02 0.02 0.02 0.02 0.02 0.02 0.02 0.02 0.03 0.03 0.01 0.01 0.01 0.01 0.01 0.01 0.00 0.00 0.00 0.00 0.00 0.01 0.01
0.03 0.03 0.03 0.03 0.03 0.03 0.03 0.03 0.03 0.02 0.02 0.02 0.01 0.01 0.01 0.01 0.01 0.01 0.02 0.02 0.02 0.01 0.02 0.02 0.02 0.02 0.02 0.02 0.02 0.02 0.02 0.03 0.01 0.00 0.00 0.01 0.01 0.00 0.00 0.00 0.00 0.00 0.00
0.01 0.01 0.01 0.01 0.01 0.01 0.01 0.01 0.01 0.01 0.01 0.01 0.01 0.01 0.01 0.01 0.01 0.01 0.01 0.01 0.01 0.02 0.02 0.03 0.03 0.03 0.03 0.03 0.03 0.03 0.03 0.03 0.02 0.01 0.02 0.01 0.01 0.01 0.01 0.01 0.00 0.00 0.00
0.01 0.01 0.01 0.01 0.01 0.00 0.00 0.01 0.01 0.01 0.01 0.01 0.01 0.01 0.01 0.00 0.00 0.00 0.00 0.00 0.01 0.01 0.02 0.02 0.03 0.03 0.03 0.03 0.04 0.03 0.03 0.02 0.03 0.03 0.03 0.02 0.03 0.04 0.05 0.04 0.02 0.01 0.01
0.01 0.01 0.01 0.01 0.01 0.00 0.00 0.00 0.00 0.00 0.01 0.01 0.01 0.02 0.01 0.01 0.00 0.00 0.00 0.00 0.00 0.00 0.01 0.01 0.02 0.03 0.03 0.04 0.04 0.03 0.02 0.03 0.02 0.02 0.02 0.01 0.02 0.03 0.04 0.04 0.02 0.01 0.00
0.02 0.02 0.02 0.02 0.01 0.00 0.00 0.00 0.00 0.00 0.01 0.01 0.01 0.02 0.02 0.01 0.01 0.02 0.01 0.01 0.02 0.01 0.01 0.01 0.02 0.04 0.03 0.04 0.03 0.02 0.03 0.03 0.03 0.03 0.03 0.02 0.03 0.03 0.03 0.01 0.00 0.00 0.00
0.02 0.02 0.02 0.02 0.01 0.00 0.00 0.00 0.00 0.00 0.01 0.01 0.01 0.02 0.03 0.03 0.01 0.00 0.00 0.02 0.05 0.05 0.02 0.01 0.03 0.03 0.02 0.01 0.01 0.01 0.02 0.03 0.03 0.04 0.04 0.03 0.03 0.03 0.03 0.04 0.01 0.00 0.00
0.02 0.02 0.01 0.02 0.02 0.01 0.00 0.00 0.00 0.01 0.02 0.02 0.02 0.02 0.01 0.02 0.00 0.00 0.01 0.03 0.05 0.06 0.02 0.00 0.00 0.00 0.00 0.00 0.00 0.01 0.02 0.04 0.05 0.05 0.05 0.03 0.03 0.03 0.03 0.05 0.03 0.01 0.00
0.02 0.01 0.01 0.02 0.02 0.01 0.00 0.00 0.00 0.00 0.01 0.03 0.05 0.05 0.02 0.00 0.00 0.00 0.01 0.03 0.04 0.03 0.02 0.03 0.05 0.06 0.06 0.05 0.02 0.01 0.04 0.05 0.06 0.05 0.05 0.04 0.04 0.04 0.02 0.02 0.03 0.04 0.04
MSLP
1015.72 1016.04 1016.26 1016.42 1016.53 1016.62 1016.72 1016.83 1016.93 1016.99 1016.98 1016.87 1016.66 1016.38 1016.07 1015.79 1015.60 1015.56 1015.68 1015.96 1016.37 1016.85 1017.36 1017.83 1018.25 1018.59 1018.87 1019.11 1019.35 1019.59 1019.85 1020.14 1020.44 1020.73 1021.00 1021.22 1021.39 1021.52 1021.62 1021.70 1021.77 1021.85 1021.95
1015.42 1015.78 1016.05 1016.25 1016.41 1016.55 1016.69 1016.82 1016.93 1016.99 1016.98 1016.88 1016.68 1016.41 1016.10 1015.82 1015.63 1015.56 1015.64 1015.88 1016.24 1016.67 1017.13 1017.57 1017.95 1018.28 1018.55 1018.78 1019.00 1019.24 1019.50 1019.79 1020.10 1020.40 1020.68 1020.92 1021.11 1021.26 1021.36 1021.44 1021.51 1021.59 1021.69
1015.25 1015.64 1015.96 1016.22 1016.44 1016.63 1016.80 1016.96 1017.08 1017.15 1017.14 1017.03 1016.84 1016.58 1016.28 1016.00 1015.79 1015.69 1015.73 1015.91 1016.20 1016.57 1016.97 1017.35 1017.69 1017.98 1018.22 1018.43 1018.63 1018.85 1019.09 1019.37 1019.67 1019.98 1020.27 1020.53 1020.74 1020.91 1021.03 1021.13 1021.22 1021.32 1021.43
1015.23 1015.65 1016.02 1016.34 1016.61 1016.85 1017.05 1017.22 1017.34 1017.40 1017.39 1017.28 1017.09 1016.84 1016.55 1016.28 1016.06 1015.94 1015.94 1016.06 1016.28 1016.58 1016.90 1017.22 1017.51 1017.75 1017.95 1018.12 1018.28 1018.47 1018.68 1018.94 1019.22 1019.51 1019.81 1020.08 1020.31 1020.50 1020.66 1020.79 1020.90 1021.02 1021.16
1015.37 1015.82 1016.24 1016.61 1016.92 1017.18 1017.40 1017.56 1017.67 1017.71 1017.68 1017.57 1017.39 1017.15 1016.88 1016.63 1016.41 1016.28 1016.25 1016.32 1016.48 1016.71 1016.96 1017.21 1017.43 1017.62 1017.77 1017.90 1018.03 1018.18 1018.35 1018.57 1018.82 1019.09 1019.37 1019.63 1019.88 1020.09 1020.27 1020.43 1020.58 1020.72 1020.88
1015.68 1016.17 1016.62 1017.01 1017.35 1017.62 1017.82 1017.96 1018.04 1018.06 1018.00 1017.89 1017.71 1017.50 1017.26 1017.04 1016.85 1016.72 1016.68 1016.71 1016.81 1016.97 1017.15 1017.34 1017.51 1017.65 1017.76 1017.85 1017.94 1018.05 1018.18 1018.35 1018.56 1018.79 1019.04 1019.28 1019.52 1019.74 1019.93 1020.10 1020.27 1020.43 1020.60
1016.17 1016.68 1017.15 1017.55 1017.88 1018.13 1018.31 1018.41 1018.44 1018.42 1018.34 1018.22 1018.07 1017.89 1017.70 1017.51 1017.36 1017.25 1017.20 1017.20 1017.26 1017.36 1017.48 1017.62 1017.74 1017.84 1017.92 1017.99 1018.05 1018.13 1018.22 1018.34 1018.50 1018.68 1018.88 1019.09 1019.30 1019.49 1019.67 1019.84 1020.00 1020.16 1020.32
1016.82 1017.34 1017.81 1018.20 1018.50 1018.72 1018.84 1018.89 1018.88 1018.82 1018.72 1018.61 1018.48 1018.34 1018.20 1018.07 1017.95 1017.86 1017.80 1017.78 1017.80 1017.85 1017.92 1018.01 1018.09 1018.17 1018.24 1018.30 1018.35 1018.41 1018.48 1018.56 1018.67 1018.79 1018.93 1019.08 1019.24 1019.39 1019.54 1019.68 1019.81 1019.94 1020.07
1017.62 1018.13 1018.57 1018.93 1019.19 1019.35 1019.43 1019.42 1019.37 1019.28 1019.17 1019.07 1018.96 1018.87 1018.78 1018.69 1018.61 1018.53 1018.47 1018.42 1018.39 1018.39 1018.41 1018.46 1018.52 1018.59 1018.66 1018.73 1018.79 1018.84 1018.90 1018.95 1019.01 1019.08 1019.16 1019.25 1019.34 1019.43 1019.53 1019.62 1019.70 1019.78 1019.87
1018.50 1018.99 1019.39 1019.70 1019.90 1020.01 1020.03 1019.98 1019.89 1019.79 1019.68 1019.60 1019.53 1019.48 1019.43 1019.37 1019.31 1019.23 1019.14 1019.04 1018.96 1018.91 1018.88 1018.89 1018.94 1019.00 1019.09 1019.17 1019.25 1019.32 1019.37 1019.41 1019.43 1019.45 1019.48 1019.50 1019.53 1019.57 1019.60 1019.64 1019.67 1019.70 1019.73
1019.41 1019.84 1020.19 1020.43 1020.58 1020.64 1020.61 1020.54 1020.43 1020.33 1020.24 1020.18 1020.14 1020.12 1020.10 1020.06 1019.99 1019.89 1019.76 1019.61 1019.47 1019.35 1019.27 1019.25 1019.27 1019.33 1019.43 1019.53 1019.63 1019.72 1019.77 1019.80 1019.81 1019.79 1019.77 1019.75 1019.73 1019.71 1019.70 1019.69 1019.67 1019.66 1019.64
1020.27 1020.64 1020.91 1021.09 1021.18 1021.19 1021.14 1021.05 1020.95 1020.85 1020.79 1020.76 1020.75 1020.75 1020.74 1020.70 1020.61 1020.46 1020.28 1020.07 1019.86 1019.68 1019.55 1019.48 1019.47 1019.53 1019.62 1019.74 1019.85 1019.95 1020.01 1020.03 1020.02 1019.98 1019.93 1019.87 1019.82 1019.78 1019.74 1019.70 1019.66 1019.62 1019.57
1021.02 1021.30 1021.50 1021.62 1021.66 1021.64 1021.58 1021.49 1021.40 1021.33 1021.29 1021.28 1021.29 1021.30 1021.29 1021.23 1021.11 1020.92 1020.68 1020.41 1020.14 1019.89 1019.70 1019.59 1019.55 1019.58 1019.66 1019.77 1019.87 1019.96 1020.01 1020.02 1020.00 1019.94 1019.87 1019.80 1019.74 1019.69 1019.65 1019.62 1019.59 1019.54 1019.49
1021.63 1021.83 1021.95 1022.02 1022.03 1021.99 1021.92 1021.84 1021.78 1021.73 1021.71 1021.72 1021.74 1021.75 1021.72 1021.63 1021.48 1021.25 1020.97 1020.65 1020.32 1020.02 1019.78 1019.62 1019.53 1019.53 1019.57 1019.64 1019.72 1019.78 1019.80 1019.78 1019.73 1019.66 1019.58 1019.50 1019.45 1019.42 1019.40 1019.40 1019.39 1019.38 1019.34
1022.08 1022.21 1022.28 1022.31 1022.30 1022.26 1022.20 1022.14 1022.09 1022.06 1022.06 1022.07 1022.08 1022.07 1022.03 1021.92 1021.74 1021.48 1021.17 1020.82 1020.46 1020.13 1019.85 1019.65 1019.51 1019.45 1019.44 1019.45 1019.46 1019.46 1019.43 1019.36 1019.27 1019.18 1019.08 1019.01 1018.97 1018.96 1018.98 1019.02 1019.07 1019.10 1019.10
1022.43 1022.51 1022.55 1022.57 1022.56 1022.52 1022.48 1022.43 1022.39 1022.36 1022.35 1022.35 1022.34 1022.31 1022.24 1022.11 1021.92 1021.66 1021.34 1020.99 1020.63 1020.29 1019.99 1019.75 1019.56 1019.43 1019.34 1019.27 1019.20 1019.11 1019.00 1018.87 1018.73 1018.59 1018.47 1018.39 1018.36 1018.37 1018.43 1018.52 1018.61 1018.70 1018.75
1022.71 1022.78 1022.83 1022.85 1022.86 1022.84 1022.81 1022.77 1022.72 1022.68 1022.65 1022.62 1022.58 1022.52 1022.42 1022.28 1022.09 1021.83 1021.54 1021.21 1020.87 1020.54 1020.24 1019.97 1019.74 1019.55 1019.37 1019.20 1019.03 1018.84 1018.63 1018.41 1018.20 1018.01 1017.85 1017.75 1017.71 1017.73 1017.81 1017.92 1018.06 1018.19 1018.30
1023.00 1023.09 1023.17 1023.22 1023.25 1023.26 1023.24 1023.20 1023.14 1023.07 1022.99 1022.92 1022.83 1022.74 1022.62 1022.47 1022.28 1022.05 1021.80 1021.51 1021.21 1020.91 1020.61 1020.33 1020.06 1019.80 1019.54 1019.28 1019.00 1018.70 1018.39 1018.09 1017.80 1017.54 1017.33 1017.19 1017.12 1017.12 1017.19 1017.31 1017.46 1017.61 1017.76
1023.33 1023.47 1023.59 1023.69 1023.76 1023.79 1023.77 1023.72 1023.63 1023.52 1023.40 1023.27 1023.13 1022.99 1022.85 1022.69 1022.52 1022.33 1022.11 1021.87 1021.61 1021.34 1021.06 1020.77 1020.47 1020.15 1019.82 1019.47 1019.10 1018.71 1018.31 1017.92 1017.55 1017.22 1016.95 1016.76 1016.64 1016.60 1016.63 1016.72 1016.85 1017.01 1017.17
1023.72 1023.91 1024.09 1024.24 1024.34 1024.38 1024.36 1024.29 1024.17 1024.02 1023.84 1023.65 1023.47 1023.29 1023.12 1022.95 1022.79 1022.62 1022.44 1022.24 1022.02 1021.78 1021.51 1021.22 1020.89 1020.53 1020.14 1019.72 1019.27 1018.81 1018.35 1017.89 1017.46 1017.07 1016.74 1016.48 1016.30 1016.19 1016.16 1016.20 1016.29 1016.42 1016.57
1024.14 1024.39 1024.61 1024.79 1024.91 1024.96 1024.94 1024.85 1024.70 1024.50 1024.27 1024.03 1023.80 1023.59 1023.39 1023.22 1023.05 1022.90 1022.74 1022.57 1022.37 1022.14 1021.88 1021.57 1021.22 1020.83 1020.40 1019.94 1019.45 1018.95 1018.44 1017.94 1017.47 1017.04 1016.66 1016.34 1016.09 1015.91 1015.80 1015.77 1015.79 1015.87 1015.98
1024.56 1024.83 1025.08 1025.28 1025.41 1025.45 1025.42 1025.31 1025.13 1024.90 1024.64 1024.36 1024.10 1023.85 1023.64 1023.44 1023.27 1023.11 1022.95 1022.78 1022.59 1022.36 1022.08 1021.76 1021.39 1020.98 1020.53 1020.05 1019.54 1019.03 1018.51 1018.00 1017.52 1017.07 1016.65 1016.29 1015.97 1015.72 1015.53 1015.41 1015.36 1015.37 1015.43
1024.93 1025.20 1025.45 1025.64 1025.76 1025.79 1025.75 1025.62 1025.43 1025.18 1024.90 1024.60 1024.32 1024.05 1023.81 1023.60 1023.41 1023.23 1023.05 1022.86 1022.64 1022.39 1022.09 1021.75 1021.36 1020.93 1020.47 1019.99 1019.49 1018.99 1018.49 1018.00 1017.53 1017.08 1016.65 1016.26 1015.90 1015.59 1015.33 1015.13 1014.99 1014.92 1014.92
1025.22 1025.47 1025.68 1025.84 1025.94 1025.97 1025.91 1025.78 1025.58 1025.33 1025.04 1024.75 1024.46 1024.18 1023.92 1023.68 1023.46 1023.25 1023.03 1022.80 1022.54 1022.25 1021.92 1021.54 1021.14 1020.70 1020.24 1019.77 1019.29 1018.82 1018.35 1017.90 1017.45 1017.02 1016.61 1016.20 1015.82 1015.47 1015.16 1014.90 1014.69 1014.55 1014.47
1025.44 1025.64 1025.81 1025.93 1026.00 1026.01 1025.94 1025.81 1025.62 1025.38 1025.11 1024.82 1024.53 1024.24 1023.96 1023.70 1023.44 1023.18 1022.91 1022.63 1022.32 1021.98 1021.60 1021.20 1020.77 1020.32 1019.87 1019.41 1018.96 1018.52 1018.10 1017.68 1017.28 1016.89 1016.49 1016.11 1015.73 1015.36 1015.02 1014.71 1014.45 1014.25 1014.11
1025.61 1025.75 1025.87 1025.96 1026.01 1026.00 1025.93 1025.81 1025.63 1025.40 1025.15 1024.87 1024.57 1024.27 1023.97 1023.67 1023.37 1023.06 1022.74 1022.40 1022.03 1021.64 1021.22 1020.79 1020.34 1019.88 1019.43 1018.99 1018.56 1018.16 1017.77 1017.40 1017.04 1016.68 1016.32 1015.97 1015.61 1015.25 1014.90 1014.58 1014.29 1014.04 1013.84
Thickness
5751 5751 5748 5745 5743 5741 5739 5737 5735 5735 5735 5734 5734 5734 5733 5732 5730 5728 5724 5721 5719 5717 5715 5712 5709 5706 5704 5702 5699 5697 5695 5693 5691 5689 5688 5687 5685 5683 5682 5681 5679 5677 5676
5751 5750 5747 5744 5742 5740 5739 5736 5734 5732 5731 5730 5730 5730 5729 5727 5726 5723 5721 5716 5714 5713 5711 5709 5706 5703 5701 5699 5697 5694 5692 5690 5688 5686 5684 5682 5681 5679 5677 5676 5674 5673 5671
5749 5747 5744 5741 5739 5737 5735 5733 5731 5729 5727 5726 5725 5724 5723 5722 5720 5719 5716 5714 5710 5708 5706 5704 5702 5699 5697 5695 5693 5691 5689 5686 5684 5681 5679 5677 5676 5674 5672 5670 5669 5667 5666
5745 5743 5740 5738 5736 5733 5731 5728 5726 5722 5721 5719 5718 5717 5717 5716 5715 5713 5712 5709 5706 5704 5702 5699 5697 5694 5692 5690 5688 5686 5684 5682 5679 5676 5674 5672 5670 5668 5666 5665 5663 5661 5659
5741 5738 5735 5733 5731 5728 5726 5723 5720 5717 5714 5712 5711 5711 5711 5710 5709 5707 5705 5703 5700 5698 5696 5693 5690 5688 5686 5684 5682 5679 5677 5675 5673 5670 5667 5665 5663 5661 5659 5658 5656 5654 5653
5735 5732 5729 5727 5725 5722 5719 5716 5713 5711 5707 5705 5704 5704 5704 5704 5702 5699 5697 5696 5693 5691 5688 5686 5683 5680 5677 5675 5673 5672 5669 5667 5665 5662 5660 5658 5656 5654 5652 5650 5648 5646 5644
5728 5726 5722 5720 5717 5714 5712 5710 5706 5703 5700 5698 5694 5693 5695 5695 5694 5691 5689 5687 5684 5681 5679 5676 5674 5672 5669 5666 5664 5661 5659 5657 5655 5652 5650 5648 5646 5644 5642 5640 5638 5637 5635
5720 5718 5714 5711 5709 5706 5703 5701 5698 5695 5693 5690 5685 5682 5680 5682 5683 5683 5680 5676 5673 5671 5668 5665 5663 5661 5658 5656 5653 5650 5648 5645 5643 5641 5639 5637 5635 5633 5631 5629 5628 5627 5625
5711 5707 5705 5701 5699 5697 5694 5691 5688 5686 5683 5682 5680 5674 5670 5668 5669 5670 5667 5665 5662 5659 5657 5654 5652 5649 5646 5643 5640 5638 5634 5631 5629 5627 5625 5623 5622 5620 5618 5617 5616 5615 5614
5699 5696 5693 5690 5687 5686 5684 5682 5680 5678 5675 5672 5670 5667 5664 5661 5657 5655 5654 5652 5650 5647 5645 5643 5639 5636 5633 5629 5626 5623 5619 5616 5613 5611 5610 5608 5607 5606 5604 5604 5603 5601 5600
5685 5682 5680 5678 5676 5674 5671 5670 5667 5666 5664 5660 5656 5654 5653 5650 5648 5643 5640 5638 5637 5635 5632 5630 5626 5623 5619 5615 5612 5608 5604 5601 5599 5595 5594 5592 5592 5590 5589 5588 5587 5586 5585
5672 5669 5667 5665 5664 5661 5658 5656 5654 5652 5650 5646 5643 5640 5637 5635 5632 5630 5627 5625 5623 5621 5619 5617 5613 5609 5605 5601 5597 5592 5588 5585 5583 5580 5577 5576 5575 5573 5573 5572 5571 5569 5567
5658 5654 5652 5651 5650 5647 5645 5643 5641 5638 5635 5632 5629 5626 5624 5621 5619 5617 5614 5611 5609 5607 5605 5600 5597 5593 5590 5585 5581 5577 5574 5571 5568 5565 5562 5560 5558 5557 5556 5555 5553 5551 5550
5642 5639 5638 5637 5635 5633 5631 5629 5626 5623 5620 5617 5614 5611 5609 5607 5605 5602 5599 5596 5594 5592 5589 5584 5581 5578 5574 5569 5565 5562 5559 5556 5553 5550 5547 5545 5542 5540 5539 5537 5535 5533 5531
5628 5625 5624 5622 5620 5618 5616 5614 5611 5607 5605 5602 5599 5596 5593 5591 5589 5587 5585 5582 5578 5574 5572 5568 5564 5562 5558 5553 5550 5547 5543 5540 5538 5536 5533 5530 5527 5525 5523 5520 5518 5516 5514
5612 5610 5609 5608 5605 5603 5600 5598 5595 5593 5590 5587 5585 5582 5578 5576 5574 5572 5569 5567 5564 5560 5555 5552 5548 5545 5541 5538 5535 5531 5528 5526 5524 5522 5519 5516 5513 5510 5508 5505 5503 5500 5497
5598 5597 5595 5593 5590 5588 5586 5584 5582 5579 5576 5573 5569 5567 5564 5562 5559 5557 5554 5551 5548 5544 5539 5536 5533 5530 5526 5523 5520 5516 5514 5513 5511 5509 5507 5504 5501 5498 5494 5492 5489 5487 5484
5584 5583 5580 5578 5576 5574 5572 5570 5568 5565 5562 5558 5554 5552 5549 5548 5544 5541 5538 5535 5532 5529 5524 5520 5517 5515 5512 5510 5507 5503 5501 5500 5497 5496 5495 5493 5490 5486 5484 5481 5479 5476 5473
5571 5569 5566 5564 5562 5559 5557 5555 5553 5550 5547 5544 5541 5538 5535 5533 5529 5526 5523 5520 5517 5514 5510 5507 5504 5502 5499 5497 5494 5491 5489 5487 5485 5485 5484 5482 5480 5478 5475 5473 5470 5467 5465
5558 5556 5553 5550 5547 5544 5541 5539 5538 5536 5534 5531 5528 5526 5522 5518 5514 5511 5509 5505 5502 5499 5497 5495 5493 5491 5488 5486 5482 5479 5478 5476 5475 5474 5473 5473 5472 5471 5469 5466 5464 5461 5458
5546 5543 5540 5537 5534 5529 5524 5522 5522 5523 5521 5519 5517 5514 5511 5506 5501 5498 5495 5491 5489 5487 5485 5484 5482 5480 5478 5475 5471 5469 5467 5467 5467 5467 5465 5465 5465 5463 5461 5460 5457 5455 5452
5533 5531 5528 5525 5521 5515 5510 5509 5508 5508 5509 5508 5506 5503 5500 5496 5492 5489 5485 5482 5480 5478 5476 5473 5472 5470 5468 5466 5463 5461 5459 5458 5458 5460 5458 5458 5458 5457 5456 5455 5453 5450 5447
5522 5519 5517 5512 5507 5501 5499 5498 5497 5497 5498 5497 5495 5493 5490 5487 5483 5479 5478 5477 5475 5473 5470 5466 5464 5462 5461 5459 5457 5454 5453 5451 5451 5453 5452 5452 5452 5451 5452 5451 5449 5446 5443
5511 5509 5506 5502 5497 5492 5490 5489 5488 5490 5491 5489 5487 5485 5482 5478 5474 5470 5470 5470 5470 5469 5467 5463 5460 5458 5457 5455 5451 5449 5448 5448 5450 5450 5449 5446 5448 5448 5449 5447 5445 5443 5440
5502 5500 5496 5493 5489 5483 5481 5480 5479 5482 5483 5482 5480 5477 5474 5471 5465 5463 5463 5464 5464 5463 5462 5459 5457 5456 5454 5453 5449 5446 5446 5446 5446 5447 5446 5444 5444 5444 5445 5445 5443 5440 5438
5494 5492 5488 5485 5481 5477 5473 5472 5471 5475 5475 5474 5473 5471 5466 5463 5460 5458 5457 5457 5457 5456 5456 5456 5456 5455 5455 5453 5451 5447 5445 5443 5443 5443 5444 5442 5441 5440 5440 5442 5441 5439 5436